User: anonymous   Login
Location: Melizzano
(41.1500°N, 14.5000°E)
Time: 05:05:41
(UTC+00:00)
Language:

Cosmos 1709 Rocket - Orbit

View from above orbital plane
View from above orbital plane
View from above satellite
View from above satellite

Ground track
Ground track

The orbit data is extracted from the following two-line orbital elements,

1 16369U 85116B   21210.55773508  .00000044  00000-0  29554-4 0  9999
2 16369  82.9392 310.1579 0034966 271.5392  98.8974 13.76879526788555
Epoch (UTC): 29 July 2021 13:23:08
Eccentricity: 0.0034966
inclination: 82.9392°
perigee height: 949 km
apogee height: 1000 km
right ascension of ascending node: 310.1579°
argument of perigee: 271.5392°
revolutions per day: 13.76879526
mean anomaly at epoch: 98.8974°
orbit number at epoch: 78855

The dashed part of the orbit path shows where the satellite is in the earth's shadow,  

DLR